EHI
0 0 0 0 0 0 0 0 0 0 0 0 0 0 0 0 0 0 0 0 0 0 0 0 0 0 0 0 0 0 0 0 0 0 0 0 0 0 0 0 0 0 0
0 0 0 0 0 0 0 0 0 0 0 0 0 0 0 0 0 0 0 0 0 0 0 0 0 0 0 0 0 0 0 0 0 0 0 0 0 0 0 0 0 0 0
0 0 0 0 0 0 0 0 0 0 0 0 0 0 0 0 0 0 0 0 0 0 0 0 0 0 0 0 0 0 0 0 0 0 0 0 0 0 0 0 0 0 0
0 0 0 0 0 0 0 0 0 0 0 0 0 0 0 0 0 0 0 0 0 0 0 0 0 0 0 0 0 0 0 0 0 0 0 0 0 0 0 0 0 0 0
0 0 0 0 0 0 0 0 0 0 0 0 0 0 0 0 0 0 0 0 0 0 0 0 0 0 0 0 0 0 0 0 0 0 0 0 0 0 0 0 0 0 0
0 0 0 0 0 0 0 0 0 0 0 0 0 0 0 0 0 0 0 0 0 0 0 0 0 0 0 0 0 0 0 0 0 0 0 0 0 0 0 0 0 0 0
0 0 0 0 0 0 0 0 0 0 0 0 0 0 0 0 0 0 0 0 0 0 0 0 0 0 0 0 0 0 0 0 0 0 0 0 0 0 0 0 0 0 0
0 0 0 0 0 0 0 0 0 0 0 0 0 0 0 0 0 0 0 0 0 0 0 0 0 0 0 0 0 0 0 0 0 0 0 0 0 0 0 0 0 0 0
0 0 0 0 0 0 0 0 0 0 0 0 0 0 0 0 0 0 0 0 0 0 0 0 0 0 0 0 0 0 0 0 0 0 0 0 0 0 0 0 0 0 0
0 0 0 0 0 0 0 0 0 0 0 0 0 0 0 0 0 0 0 0 0 0 0 0 0 0 0 0 0 0 0 0 0 0 0 0 0 0 0 0 0 0 0
0 0 0 0 0 0 0 0 0 0 0 0 0 0 0 0 0 0 0 0 0 0 0 0 0 0 0 0 0 0 0 0 0 0 0 0 0 0 0 0 0 0 0
0 0 0 0 0 0 0 0 0 0 0 0 0 0 0 0 0 0 0 0 0 0 0 0 0 0 0 0 0 0 0 0 0 0 0 0 0 0 0 0 0 0 0
0 0 0 0 0 0 0 0 0 0 0 0 0 0 0 0 0 0 0 0 0 0 0 0 0 0 0 0 0 0 0 0 0 0 0 0 0 0 0 0 0 0 0
0 0 0 0 0 0 0 0 0 0 0 0 0 0 0 0 0 0 0 0 0 0 0 0 0 0 0 0 0 0 0 0 0 0 0 0 0 0 0 0 0 0 0
0 0 0 0 0 0 0 0 0 0 0 0 0 0 0 0 0 0 0 0 0 0 0 0 0 0 0 0 0 0 0 0 0 0 0 0 0 0 0 0 0 0 0
0 0 0 0 0 0 0 0 0 0 0 0 0 0 0 0 0 0 0 0 0 0 0 0 0 0 0 0 0 0 0 0 0 0 0 0 0 0 0 0 0 0 0
0 0 0 0 0 0 0 0 0 0 0 0 0 0 0 0 0 0 0 0 0 0 0 0 0 0 0 0 0 0 0 0 0 0 0 0 0 0 0 0 0 0 0
0 0 0 0 0 0 0 0 0 0 0 0 0 0 0 0 0 0 0 0 0 0 0 0 0 0 0 0 0 0 0 0 0 0 0 0 0 0 0 0 0 0 0
0 0 0 0 0 0 0 0 0 0 0 0 0 0 0 0 0 0 0 0 0 0 0 0 0 0 0 0 0 0 0 0 0 0 0 0 0 0 0 0 0 0 0
0 0 0 0 0 0 0 0 0 0 0 0 0 0 0 0 0 0 0 0 0 0 0 0 0 0 0 0 0 0 0 0 0 0 0 0 0 0 0 0 0 0 0
0 0 0 0 0 0 0 0 0 0 0 0 0 0 0 0 0 0 0 0 0 0 0 0 0 0 0 0 0 0 0 0 0 0 0 0 0 0 0 0 0 0 0
0 0 0 0 0 0 0 0 0 0 0 0 0 0 0 0 0 0 0 0 0 0 0 0 0 0 0 0 0 0 0 0 0 0 0 0 0 0 0 0 0 0 0
0 0 0 0 0 0 0 0 0 0 0 0 0 0 0 0 0 0 0 0 0 0 0 0 0 0 0 0 0 0 0 0 0 0 0 0 0 0 0 0 0 0 0
0 0 0 0 0 0 0 0 0 0 0 0 0 0 0 0 0 0 0 0 0 0 0 0 0 0 0 0 0 0 0 0 0 0 0 0 0 0 0 0 0 0 0
0 0 0 0 0 0 0 0 0 0 0 0 0 0 0 0 0 0 0 0 0 0 0 0 0 0 0 0 0 0 0 0 0 0 0 0 0 0 0 0 0 0 0
0 0 0 0 0 0 0 0 0 0 0 0 0 0 0 0 0 0 0 0 0 0 0 0 0 0 0 0 0 0 0 0 0 0 0 0 0 0 0 0 0 0 0
Wind_Speed
2 2 1 1 1 1 1 1 1 1 1 1 1 1 1 1 2 2 1 2 2 2 2 2 1 1 1 1 1 1 2 2 5 4 3 4 4 5 6 5 6 6 7
2 1 1 1 1 1 1 1 1 1 1 1 1 1 1 2 2 2 2 2 2 2 2 1 1 0 0 1 1 1 2 2 4 6 4 3 4 5 6 6 6 6 6
1 1 1 1 0 0 0 0 0 1 0 0 1 1 1 1 1 2 2 2 2 2 2 2 1 1 1 1 1 2 2 2 3 4 5 3 4 4 5 6 6 6 7
2 2 2 1 1 1 1 1 0 1 1 1 1 1 1 1 2 2 2 2 2 1 1 2 2 2 2 2 2 2 2 2 3 3 4 4 4 4 4 5 6 5 6
2 2 2 2 2 1 1 1 1 1 1 1 1 1 1 1 2 2 2 2 2 2 1 1 1 2 2 2 2 2 2 2 3 3 4 4 4 4 4 4 7 7 7
3 3 3 2 2 2 2 2 1 1 1 1 1 1 1 1 2 3 3 2 2 2 1 0 1 1 2 3 3 3 3 3 3 3 4 5 5 5 5 5 6 6 7
4 3 3 3 3 2 2 2 2 1 1 1 1 1 1 1 2 2 2 2 2 1 1 1 1 1 2 1 3 4 4 5 5 4 5 6 6 5 6 6 6 6 7
4 4 4 3 3 3 2 2 2 2 2 1 1 1 1 1 2 2 2 2 1 1 1 1 1 1 2 2 1 2 3 3 4 3 4 5 6 5 5 6 7 7 7
5 5 5 5 4 4 4 3 2 2 2 2 2 2 1 1 2 2 1 1 1 1 1 1 1 2 3 3 2 2 3 4 4 5 6 6 8 8 6 4 4 5 6
7 6 5 5 5 5 4 3 2 2 2 2 1 2 2 1 2 2 1 1 1 1 1 1 3 3 4 4 2 2 4 4 4 4 4 5 5 6 6 4 4 4 4
5 4 4 5 5 5 4 3 3 3 2 2 1 1 1 2 2 2 2 1 1 1 1 1 2 4 5 4 3 3 5 4 3 3 3 4 4 3 4 4 4 4 4
5 5 5 5 4 4 4 3 3 3 3 2 1 1 1 1 2 3 3 3 2 2 2 2 2 4 4 4 3 4 5 4 2 2 3 4 4 4 4 5 5 4 5
6 6 5 5 4 4 5 4 3 3 3 2 2 2 1 1 2 4 4 4 3 2 2 3 3 3 2 2 3 4 3 2 2 2 3 4 4 4 4 4 4 4 4
7 6 6 5 5 4 4 4 4 4 4 3 3 3 2 2 2 1 2 2 2 1 1 1 2 2 1 2 3 3 2 2 2 2 3 3 3 3 3 3 4 4 4
7 6 6 6 6 5 4 4 5 4 5 5 4 3 3 3 3 4 2 2 2 2 1 0 0 1 1 1 2 2 2 2 3 3 3 3 3 3 3 3 3 3 3
7 7 6 5 5 5 4 3 5 6 7 8 7 5 4 5 5 5 4 4 3 3 1 1 1 1 1 1 2 2 2 2 3 3 3 3 3 3 4 3 3 3 3
8 8 6 6 6 6 5 5 4 3 6 7 8 8 7 6 6 5 4 4 4 3 2 2 2 2 2 1 2 2 2 2 2 2 3 3 3 3 3 3 3 3 4
8 8 7 6 6 6 6 5 5 5 4 3 4 7 7 6 6 5 4 3 3 2 2 2 2 2 2 2 2 2 2 2 2 2 3 3 3 3 3 3 3 4 4
7 6 6 5 5 5 5 5 5 5 4 3 2 3 6 5 6 6 5 3 3 3 2 2 2 2 2 2 2 2 2 2 3 3 3 3 3 3 3 3 3 5 4
6 9 8 6 6 6 5 5 5 5 5 4 4 4 3 3 3 3 3 3 3 3 3 3 3 2 2 2 2 2 2 2 3 3 3 3 3 3 3 4 3 3 3
5 7 10 7 6 6 6 6 6 5 5 5 5 5 7 5 4 4 4 3 3 4 3 3 3 3 3 2 2 2 3 3 3 3 3 3 3 3 3 3 3 3 3
6 6 6 6 6 6 6 6 5 5 5 5 4 4 9 5 4 4 4 4 4 3 3 3 3 3 3 3 3 3 3 3 3 3 3 3 3 3 3 3 3 3 3
6 6 6 5 5 8 7 5 5 5 5 5 5 4 5 4 4 4 4 4 3 3 3 3 3 3 3 3 3 3 3 3 3 3 3 3 3 3 3 3 3 3 3
7 7 7 6 6 6 6 6 6 6 5 5 5 5 5 5 5 5 4 4 3 3 3 3 4 4 4 3 2 3 3 4 4 3 4 3 3 3 3 3 3 3 2
6 6 7 6 6 6 6 6 6 6 6 6 6 5 5 5 4 4 4 3 4 3 4 3 3 3 4 4 4 3 5 7 5 3 3 3 3 3 3 3 3 2 2
6 6 6 6 6 6 6 6 6 6 6 6 5 5 5 5 5 4 4 4 3 3 3 3 4 4 4 4 4 5 7 7 6 5 2 2 3 3 3 2 3 2 2
Wind_Direction
259 253 243 229 214 189 184 204 216 206 179 165 170 164 170 175 168 153 152 151 156 164 166 166 178 172 186 217 234 239 251 247 264 280 273 283 286 292 298 291 287 286 289
247 231 227 203 157 156 179 208 192 190 185 177 175 173 182 184 175 165 168 161 166 173 172 158 181 165 178 234 235 247 256 254 256 279 292 293 290 297 298 297 298 296 289
217 196 193 177 160 196 222 218 154 141 120 131 148 159 166 178 170 165 163 162 173 178 173 174 190 169 239 266 270 265 269 275 260 270 287 291 292 300 305 299 296 293 296
198 192 199 204 198 204 191 177 158 137 135 147 141 151 156 163 160 154 144 153 159 168 179 184 192 196 227 254 267 266 273 280 272 271 282 292 292 299 304 306 310 307 302
196 200 208 200 186 182 176 175 154 141 141 131 119 118 132 162 170 155 146 151 157 164 181 200 209 221 237 254 264 265 265 270 275 278 285 296 299 312 310 305 303 307 297
204 211 203 187 181 183 186 172 148 143 132 133 144 137 146 167 172 164 146 146 142 145 159 199 236 225 258 283 290 290 284 273 273 274 285 292 296 294 296 299 302 309 303
210 213 204 192 186 189 186 168 170 170 153 154 163 162 176 191 176 170 157 142 141 156 172 196 283 286 295 284 301 312 301 289 278 269 278 283 289 293 294 293 294 294 284
207 209 204 192 190 188 182 189 196 179 174 183 193 189 183 198 171 162 164 131 134 163 200 214 238 278 289 299 299 303 295 291 290 276 268 279 286 289 285 282 283 284 281
209 208 203 194 189 186 190 196 191 176 178 184 187 183 179 203 182 175 140 125 143 220 249 245 252 267 281 301 299 286 292 292 303 299 294 293 296 298 300 297 299 300 298
213 208 197 191 189 190 193 190 178 171 182 178 183 184 187 206 206 190 153 139 176 243 273 265 263 274 287 299 283 273 286 294 308 316 312 310 304 303 307 286 279 285 296
203 193 189 189 190 188 182 177 169 168 172 179 191 214 208 210 223 221 206 177 205 227 252 272 273 283 287 293 294 276 282 299 297 300 305 309 311 308 304 295 281 270 273
187 190 189 186 186 179 172 174 169 167 173 187 187 229 242 237 233 237 235 232 230 226 245 258 267 280 287 296 304 309 312 314 307 312 317 318 319 316 311 304 292 277 263
185 191 189 183 182 174 173 174 169 170 178 191 193 216 236 231 241 246 252 251 248 244 242 258 277 290 301 314 329 333 334 326 319 315 309 308 306 302 306 307 300 295 290
189 191 185 180 182 179 178 178 178 182 187 192 201 214 223 227 230 233 239 239 238 259 266 270 300 316 337 339 343 342 338 328 324 305 303 301 308 313 314 316 311 313 312
192 191 186 184 183 185 188 192 193 199 191 190 202 204 205 226 232 226 215 210 199 213 206 109 356 327 329 331 330 328 330 335 330 318 308 309 314 315 316 318 310 311 306
193 194 191 185 183 182 183 197 214 207 211 214 213 207 220 226 228 226 231 232 225 210 175 195 231 252 271 292 306 316 324 322 320 314 304 302 308 310 312 319 322 315 310
199 195 188 185 184 184 184 187 195 209 215 219 222 224 227 227 224 224 224 223 217 205 208 208 220 234 253 266 281 293 299 301 301 301 295 296 300 303 308 314 319 319 312
201 197 189 187 186 187 189 189 187 187 196 215 221 222 225 225 220 214 210 200 208 203 212 219 226 234 243 255 266 279 289 295 295 297 296 293 291 294 301 308 310 308 308
197 195 189 184 183 184 183 183 186 190 196 197 191 212 213 215 212 209 196 195 204 213 217 223 227 231 239 246 257 264 276 286 291 291 293 293 287 289 292 298 299 304 304
201 198 186 181 180 181 182 185 191 194 196 196 201 202 185 178 191 201 199 198 207 215 219 223 225 228 236 238 246 259 271 281 288 287 290 293 290 285 286 287 292 298 295
192 192 187 183 187 187 187 191 193 194 199 203 207 203 195 192 198 203 205 206 210 215 217 221 223 228 232 234 239 249 257 267 272 277 282 286 291 293 292 288 288 289 292
184 184 185 188 188 189 190 191 191 196 201 203 201 204 208 200 198 205 211 215 213 214 213 215 222 225 223 222 226 236 247 258 266 275 280 282 285 290 292 292 294 296 294
182 183 186 188 186 192 193 190 192 196 199 200 195 192 197 200 204 209 212 213 210 211 209 209 216 224 225 224 220 223 236 248 256 261 269 277 281 285 288 289 288 288 289
185 186 187 186 185 189 191 193 194 196 198 198 197 198 200 201 205 208 208 207 208 210 209 209 213 220 225 229 229 231 239 249 255 251 253 262 270 275 278 282 283 281 282
186 187 188 188 188 191 192 194 196 197 199 199 200 200 200 199 202 205 202 202 206 211 214 213 213 216 222 232 239 246 252 261 269 260 249 254 260 263 265 273 277 281 278
187 188 189 188 190 192 193 196 198 199 200 200 200 198 196 197 199 199 197 198 205 210 212 212 215 219 226 234 241 251 262 270 273 272 262 250 255 261 265 267 271 272 272